Location: Fort Worth, Tx
(32.7431°N, 97.3695°W)
Time: 12:53:30
(UTC-05:00)

Vanguard 1 Rocket - All Passes

Search period start: 22 February 2024 00:00
Search period end: 03 March 2024 00:00
Orbit: 654 x 4218 km, 34.3° (Epoch: 21 February)

Date Brightness Start Highest point End Pass type
(mag) Time Alt. Az. Time Alt. Az. Time Alt. Az.
22 Feb - 04:52:02 10° SSE 04:57:37 11° SE 05:02:47 10° SE visible
22 Feb - 07:08:32 10° SSW 07:28:35 37° SSE 07:41:06 10° E visible
22 Feb - 09:38:51 10° WSW 09:57:49 71° SSE 10:07:14 10° ENE daylight
22 Feb - 12:12:29 10° W 12:25:06 81° N 12:31:30 10° E daylight
22 Feb - 14:43:26 10° WNW 14:50:46 68° SSW 14:55:26 10° ESE daylight
22 Feb - 17:13:23 10° SW 17:14:42 11° SW 17:15:57 10° SSW daylight
23 Feb - 05:55:51 10° S 06:14:07 27° SE 06:27:20 10° E visible
23 Feb - 08:23:04 10° SW 08:44:18 58° SSE 08:55:41 10° E daylight
23 Feb - 10:56:25 10° WSW 11:12:36 89° NNW 11:20:29 10° E daylight
23 Feb - 13:29:21 10° W 13:39:11 89° N 13:44:35 10° E daylight
23 Feb - 15:58:53 10° W 16:03:41 27° SW 16:07:29 10° SSE daylight
24 Feb - 04:45:56 10° S 04:59:21 17° SE 05:10:42 10° ESE visible
24 Feb - 07:08:12 10° SSW 07:30:11 45° SSE 07:43:32 10° E visible
24 Feb - 09:39:54 10° WSW 09:59:35 80° SSE 10:09:17 10° ENE daylight
24 Feb - 12:14:10 10° W 12:27:06 81° N 12:33:38 10° E daylight
24 Feb - 14:45:16 10° WNW 14:52:37 53° SSW 14:57:18 10° SE daylight
25 Feb - 05:54:44 10° SSW 06:15:38 34° SE 06:30:19 10° E visible
25 Feb - 08:23:38 10° SW 08:45:57 67° SSE 08:57:46 10° ENE daylight
25 Feb - 10:57:56 10° W 11:14:31 85° N 11:22:34 10° E daylight
25 Feb - 13:31:03 10° WNW 13:41:08 81° SSW 13:46:39 10° ESE daylight
25 Feb - 16:01:19 10° W 16:05:18 19° SW 16:08:33 10° S daylight
26 Feb - 04:43:18 10° S 05:00:51 23° SE 05:15:11 10° E visible
26 Feb - 07:08:14 10° SW 07:31:43 54° SSE 07:45:44 10° E visible
26 Feb - 09:41:07 10° WSW 10:01:22 87° SSE 10:11:19 10° ENE daylight
26 Feb - 12:15:49 10° W 12:29:06 85° N 12:35:45 10° E daylight
26 Feb - 14:47:08 10° W 14:54:22 40° SSW 14:59:00 10° SE daylight
27 Feb - 03:36:18 10° SSE 03:46:01 13° SE 03:55:08 10° ESE visible
27 Feb - 05:54:10 10° SSW 06:17:01 42° SE 06:32:51 10° E visible
27 Feb - 08:24:27 10° WSW 08:47:34 75° SSE 08:59:48 10° ENE daylight
27 Feb - 10:59:29 10° W 11:16:26 83° N 11:24:39 10° E daylight
27 Feb - 13:32:43 10° WNW 13:43:01 69° SSW 13:48:37 10° ESE daylight
27 Feb - 16:04:29 10° WSW 16:06:47 12° SW 16:08:49 10° SSW daylight
28 Feb - 04:41:50 10° S 05:02:09 30° SE 05:18:31 10° E visible
28 Feb - 07:08:36 10° SW 07:33:10 63° SSE 07:47:48 10° ENE visible
28 Feb - 09:42:28 10° WSW 10:03:09 88° N 10:13:21 10° E daylight
28 Feb - 12:17:25 10° W 12:31:02 89° S 12:37:49 10° ESE daylight
28 Feb - 14:49:07 10° W 14:55:57 30° SW 15:00:29 10° SSE daylight
29 Feb - 03:32:11 10° S 03:47:21 19° SE 04:01:17 10° E visible
29 Feb - 05:54:03 10° SSW 06:18:19 50° SSE 06:35:05 10° ENE visible
29 Feb - 08:25:28 10° WSW 08:49:12 83° SSE 09:01:47 10° ENE daylight
29 Feb - 11:01:03 10° W 11:18:21 84° N 11:26:44 10° E daylight
29 Feb - 13:34:23 10° WNW 13:44:46 57° SSW 13:50:27 10° SE daylight
01 Mar - 04:41:05 10° SSW 05:03:17 37° SE 05:21:13 10° E visible
01 Mar - 07:09:15 10° SW 07:34:36 71° SSE 07:49:46 10° ENE visible
01 Mar - 09:43:54 10° W 10:04:57 85° N 10:15:23 10° E daylight
01 Mar - 12:18:58 10° WNW 12:32:54 81° SSW 12:39:50 10° ESE daylight
01 Mar - 14:51:19 10° W 14:57:23 22° SW 15:01:38 10° S daylight
02 Mar - 03:30:11 10° S 03:48:27 25° SE 04:05:17 10° E visible
02 Mar - 05:54:18 10° SW 06:19:33 58° SSE 06:37:08 10° ENE visible
02 Mar - 08:26:40 10° WSW 08:50:51 88° SSE 09:03:44 10° E daylight
02 Mar - 11:02:34 10° W 11:20:15 87° N 11:28:48 10° E daylight
02 Mar - 13:36:04 10° WNW 13:46:22 45° SW 13:52:08 10° SE daylight
